Weather History for KEHR - May, 2013

Change the Weather History Date:

Tuesday, May 14, 2013

  Actual Average Record
Temperature  
Mean Temperature 68 °F -  
Max Temperature 84 °F 77 °F - (-1)
Min Temperature 51 °F 54 °F - (-1)
Cooling Degree Days 2    
Growing Degree Days 18 (Base 50)    
Moisture  
Dew Point 48 °F    
Average Humidity 48    
Maximum Humidity 54    
Minimum Humidity 37    
Precipitation  
Precipitation 0.00 in - - ()
Sea Level Pressure  
Sea Level Pressure 29.98 in    
Wind  
Wind Speed 11 mph (SSW)    
Max Wind Speed 23 mph    
Max Gust Speed 29 mph    
Visibility 10 miles    
Events      
Averages and records for this station are not official NWS values.
T = Trace of Precipitation, MM = Missing Value Source: NWS Daily Summary

Daily Weather History Graph

Daily Weather History Graph

Search for Another Location

Airport or City:

Trip Planner

Search our weather history database for the weather conditions in past years. The results will help you decide how hot, cold, wet, or windy it might be!

Date:

Astronomy

May. 14, 2013 Rise Set
Actual Time 5:41 AM CDT 7:53 PM CDT
Civil Twilight 5:12 AM CDT 8:22 PM CDT
Nautical Twilight 4:36 AM CDT 8:58 PM CDT
Astronomical Twilight 3:57 AM CDT 9:38 PM CDT
Moon 9:20 AM CDT (5/14) 11:41 PM CDT (5/14)
Length of Visible Light 15h 10m
Length of Day
14h 11m
Waxing Crescent, 19% of the Moon is Illuminated
May 14
Waxing Crescent
May 17
First Quarter
May 24
Full
May 31
Last Quarter
Jun 8
New

Hourly Weather History & Observations

Time (CDT) Temp. Heat Index Dew Point Humidity Pressure Visibility Wind Dir Wind Speed Gust Speed Precip Events Conditions
12:15 AM 55.4 °F - 33.8 °F 44% 30.12 in 10.0 mi SSE 8.1 mph - N/A   Clear
12:35 AM 55.4 °F - 33.8 °F 44% 30.12 in 10.0 mi SSE 9.2 mph - N/A   Clear
12:55 AM 53.6 °F - 33.8 °F 47% 30.10 in 10.0 mi SSE 9.2 mph - N/A   Clear
1:15 AM 53.6 °F - 33.8 °F 47% 30.10 in 10.0 mi SSE 8.1 mph - N/A   Clear
1:35 AM 53.6 °F - 35.6 °F 51% 30.09 in 10.0 mi SSE 5.8 mph - N/A   Clear
1:55 AM 55.4 °F - 33.8 °F 44% 30.09 in 10.0 mi SE 5.8 mph - N/A   Clear
2:15 AM 53.6 °F - 33.8 °F 47% 30.09 in 10.0 mi SE 5.8 mph - N/A   Clear
2:35 AM 53.6 °F - 33.8 °F 47% 30.09 in 10.0 mi SE 4.6 mph - N/A   Clear
2:55 AM 51.8 °F - 35.6 °F 54% 30.09 in 10.0 mi SSE 4.6 mph - N/A   Clear
3:15 AM 51.8 °F - 35.6 °F 54% 30.08 in 10.0 mi SSE 5.8 mph - N/A   Clear
3:35 AM 51.8 °F - 35.6 °F 54% 30.07 in 10.0 mi SSE 6.9 mph - N/A   Clear
3:55 AM 51.8 °F - 35.6 °F 54% 30.07 in 10.0 mi SSE 5.8 mph - N/A   Clear
4:15 AM 51.8 °F - 35.6 °F 54% 30.07 in 10.0 mi SSE 4.6 mph - N/A   Clear
4:35 AM 51.8 °F - 35.6 °F 54% 30.06 in 10.0 mi SE 4.6 mph - N/A   Clear
4:55 AM 51.8 °F - 35.6 °F 54% 30.06 in 10.0 mi SSE 5.8 mph - N/A   Clear
5:15 AM 51.8 °F - 35.6 °F 54% 30.06 in 10.0 mi SSE 4.6 mph - N/A   Clear
5:35 AM 51.8 °F - 35.6 °F 54% 30.05 in 10.0 mi SSE 5.8 mph - N/A   Clear
5:55 AM 51.8 °F - 35.6 °F 54% 30.06 in 10.0 mi SSE 6.9 mph - N/A   Clear
6:15 AM 51.8 °F - 35.6 °F 54% 30.06 in 10.0 mi SSE 6.9 mph - N/A   Clear
6:35 AM 53.6 °F - 35.6 °F 51% 30.06 in 10.0 mi SSE 6.9 mph - N/A   Clear
6:55 AM 53.6 °F - 37.4 °F 54% 30.06 in 10.0 mi South 6.9 mph - N/A   Clear
7:15 AM 55.4 °F - 37.4 °F 51% 30.05 in 10.0 mi South 8.1 mph - N/A   Clear
7:35 AM 57.2 °F - 39.2 °F 51% 30.05 in 10.0 mi South 9.2 mph - N/A   Clear
7:55 AM 60.8 °F - 42.8 °F 52% 30.05 in 10.0 mi South 11.5 mph 16.1 mph N/A   Clear
8:15 AM 62.6 °F - 42.8 °F 48% 30.04 in 10.0 mi South 11.5 mph - N/A   Clear
8:35 AM 64.4 °F - 44.6 °F 49% 30.03 in 10.0 mi SSW 15.0 mph - N/A   Clear
8:55 AM 64.4 °F - 46.4 °F 52% 30.03 in 10.0 mi SSW 12.7 mph - N/A   Clear
9:15 AM 66.2 °F - 46.4 °F 49% 30.02 in 10.0 mi SSW 13.8 mph - N/A   Clear
9:35 AM 68.0 °F - 48.2 °F 49% 30.01 in 10.0 mi SSW 12.7 mph - N/A   Clear
9:55 AM 69.8 °F - 50.0 °F 49% 30.01 in 10.0 mi SSW 15.0 mph - N/A   Clear
10:16 AM 71.6 °F - 50.0 °F 46% 30.00 in 10.0 mi SSW 15.0 mph 20.7 mph N/A   Clear
10:35 AM 71.6 °F - 51.8 °F 50% 30.00 in 10.0 mi SSW 15.0 mph - N/A   Clear
10:55 AM 73.4 °F - 53.6 °F 50% 29.99 in 10.0 mi SSW 15.0 mph - N/A   Clear
11:15 AM 75.2 °F - 53.6 °F 47% 29.99 in 10.0 mi SSW 12.7 mph - N/A   Clear
11:35 AM 75.2 °F - 53.6 °F 47% 29.98 in 10.0 mi SSW 15.0 mph 21.9 mph N/A   Clear
11:55 AM 77.0 °F - 55.4 °F 47% 29.97 in 10.0 mi SW 18.4 mph 23.0 mph N/A   Clear
12:15 PM 78.8 °F - 55.4 °F 44% 29.96 in 10.0 mi SSW 16.1 mph - N/A   Clear
12:35 PM 78.8 °F - 55.4 °F 44% 29.96 in 10.0 mi SSW 15.0 mph 20.7 mph N/A   Clear
12:55 PM 80.6 °F 80.5 °F 55.4 °F 42% 29.95 in 10.0 mi SSW 18.4 mph 23.0 mph N/A   Clear
1:16 PM 80.6 °F 80.8 °F 57.2 °F 45% 29.94 in 10.0 mi SSW 19.6 mph 24.2 mph N/A   Clear
1:35 PM 82.4 °F 82.0 °F 57.2 °F 42% 29.93 in 10.0 mi SSW 20.7 mph 26.5 mph N/A   Clear
1:55 PM 82.4 °F 82.0 °F 57.2 °F 42% 29.93 in 10.0 mi SW 18.4 mph 24.2 mph N/A   Clear
2:15 PM 82.4 °F 82.0 °F 57.2 °F 42% 29.92 in 10.0 mi SSW 18.4 mph 23.0 mph N/A   Clear
2:35 PM 82.4 °F 82.0 °F 57.2 °F 42% 29.91 in 10.0 mi SW 21.9 mph 25.3 mph N/A   Clear
2:55 PM 82.4 °F 82.0 °F 57.2 °F 42% 29.91 in 10.0 mi SW 19.6 mph 26.5 mph N/A   Clear
3:15 PM 84.2 °F 83.5 °F 57.2 °F 40% 29.90 in 10.0 mi SW 18.4 mph 25.3 mph N/A   Clear
3:35 PM 84.2 °F 83.5 °F 57.2 °F 40% 29.90 in 10.0 mi SW 17.3 mph 25.3 mph N/A   Clear
4:15 PM 84.2 °F 83.5 °F 57.2 °F 40% 29.89 in 10.0 mi SW 20.7 mph 25.3 mph N/A   Clear
4:35 PM 84.2 °F 83.0 °F 55.4 °F 37% 29.89 in 10.0 mi WSW 23.0 mph 26.5 mph N/A   Clear
4:55 PM 84.2 °F 83.5 °F 57.2 °F 40% 29.89 in 10.0 mi WSW 18.4 mph 27.6 mph N/A   Clear
5:15 PM 82.4 °F 82.0 °F 57.2 °F 42% 29.89 in 10.0 mi SW 23.0 mph 28.8 mph N/A   Clear
5:35 PM 82.4 °F 81.7 °F 55.4 °F 39% 29.89 in 10.0 mi SW 21.9 mph 28.8 mph N/A   Clear
5:55 PM 82.4 °F 82.0 °F 57.2 °F 42% 29.89 in 10.0 mi SW 17.3 mph 26.5 mph N/A   Clear
6:15 PM 82.4 °F 82.0 °F 57.2 °F 42% 29.88 in 10.0 mi SW 12.7 mph 21.9 mph N/A   Clear
6:35 PM 82.4 °F 82.0 °F 57.2 °F 42% 29.88 in 10.0 mi SW 16.1 mph 20.7 mph N/A   Clear
6:55 PM 80.6 °F 80.5 °F 55.4 °F 42% 29.88 in 10.0 mi SW 13.8 mph 20.7 mph N/A   Clear
7:15 PM 80.6 °F 80.5 °F 55.4 °F 42% 29.88 in 10.0 mi SW 13.8 mph 23.0 mph N/A   Clear
7:35 PM 78.8 °F - 55.4 °F 44% 29.88 in 10.0 mi SW 12.7 mph - N/A   Clear
7:55 PM 77.0 °F - 55.4 °F 47% 29.88 in 10.0 mi SW 13.8 mph - N/A   Clear
8:15 PM 75.2 °F - 53.6 °F 47% 29.88 in 10.0 mi SW 13.8 mph - N/A   Clear
8:35 PM 75.2 °F - 53.6 °F 47% 29.88 in 10.0 mi SW 13.8 mph - N/A   Clear
8:55 PM 75.2 °F - 53.6 °F 47% 29.89 in 10.0 mi SW 12.7 mph - N/A   Clear
9:15 PM 75.2 °F - 53.6 °F 47% 29.89 in 10.0 mi SW 15.0 mph 20.7 mph N/A   Clear
9:35 PM 73.4 °F - 55.4 °F 53% 29.90 in 10.0 mi SW 13.8 mph - N/A   Clear
9:55 PM 73.4 °F - 55.4 °F 53% 29.90 in 10.0 mi SW 13.8 mph - N/A   Clear
10:15 PM 73.4 °F - 55.4 °F 53% 29.91 in 10.0 mi SW 12.7 mph - N/A   Clear
10:35 PM 73.4 °F - 53.6 °F 50% 29.91 in 10.0 mi SW 15.0 mph - N/A   Clear
11:15 PM 71.6 °F - 53.6 °F 53% 29.91 in 10.0 mi SW 15.0 mph - N/A   Clear
11:35 PM 71.6 °F - 53.6 °F 53% 29.91 in 10.0 mi SW 15.0 mph - N/A   Clear
11:55 PM 71.6 °F - 53.6 °F 53% 29.92 in 10.0 mi SW 13.8 mph - N/A   Clear